[[{"header":{"parameterUnit":"m.s-1","parameterCategory":1,"la1":30.2991,"la2":30.254,"lo1":-89.0895,"lo2":-89.0444,"dx":0.0017,"dy":0.0017,"nx":28,"ny":28,"refTime":"2023-01-07T03:00:00:Z","depth":0,"parameterNumber":2,"parameterNumberName":"U-component_of_WINDS"},"data":[0,0,0,0,0,0,0,0,0,0,0,0,0,0,0,0,0,0,0,0,0,0,0,0,0,0,0,0,0,0,0,0,0,0,0,0,0,0,0,0,0,0,0,0,0,0,0,0,0,0,0,0,0,0,0,0,0,0,-1.315,-1.315,0,-1.3207,-1.3208,-1.3208,-1.3179,-1.3177,-1.3176,-1.3174,-1.3235,-1.3238,-1.3241,0,0,0,0,0,0,0,0,0,0,0,0,0,-1.3019,-1.3021,-1.315,-1.315,-1.3151,-1.3207,-1.3208,-1.3209,-1.3179,-1.3177,-1.3175,-1.3174,-1.3234,-1.3238,-1.3242,0,0,0,0,0,0,0,0,0,0,0,0,0,-1.3076,-1.3022,-1.315,-1.3143,-1.3143,-1.3207,-1.3208,-1.3209,-1.318,-1.3177,-1.3175,-1.3173,-1.3233,-1.3238,-1.3242,-1.3316,0,0,-1.3256,-1.3258,0,0,0,0,0,0,0,0,-1.3073,-1.3081,-1.3143,-1.3144,-1.3144,-1.3183,-1.3184,-1.3245,-1.318,-1.3166,-1.3174,-1.3172,-1.322,-1.3226,-1.3242,-1.3319,-1.3322,-1.3257,-1.3259,-1.3261,-1.3263,0,0,0,0,0,0,0,-1.3069,-1.3078,-1.3172,-1.3144,-1.3145,-1.3139,-1.3144,-1.3195,-1.3205,-1.3167,-1.3165,-1.3172,-1.322,-1.3237,-1.3243,-1.3323,-1.3256,-1.3261,-1.3263,-1.3265,-1.3466,-1.3469,0,0,0,0,0,0,-1.3065,-1.3075,-1.3171,-1.3174,-1.3102,-1.3143,-1.3149,-1.3173,-1.3205,-1.3207,-1.3174,-1.317,-1.323,-1.3237,-1.3245,-1.3335,-1.3261,-1.3266,-1.3268,-1.3464,-1.3467,-1.347,0,0,0,0,0,0,-1.3062,-1.3074,-1.3168,-1.3124,-1.3136,-1.3148,-1.3175,-1.3175,-1.3193,-1.321,-1.3212,-1.3189,-1.3229,-1.3238,-1.3299,-1.3336,-1.3268,-1.3272,-1.3461,-1.3465,-1.3468,-1.3514,0,0,0,0,0,0,-1.3058,-1.3073,-1.31,-1.3125,-1.3138,-1.322,-1.3177,-1.3178,-1.32,-1.3196,-1.3225,-1.3227,-1.3228,-1.3292,-1.3304,-1.3341,-1.3275,-1.3457,-1.3463,-1.3467,-1.3509,-1.3519,-1.3527,0,0,0,0,0,-1.3054,-1.311,-1.3101,-1.3113,-1.3172,-1.3222,-1.323,-1.3229,-1.3203,-1.3231,-1.3243,-1.3227,-1.3331,-1.3299,-1.3311,-1.3351,-1.3455,-1.3461,-1.3467,-1.3505,-1.3517,-1.3527,0,0,0,0,0,0,-1.3089,-1.3113,-1.3104,-1.317,-1.3194,-1.3217,-1.3252,-1.3241,-1.3274,-1.3269,-1.3267,-1.3274,-1.3337,-1.335,-1.3314,-1.3426,-1.3389,-1.3398,-1.3414,-1.3426,-1.3435,-1.343,-1.3279,0,0,0,0,0,-1.3105,-1.3143,-1.3162,-1.3219,-1.3232,-1.324,-1.3262,-1.3259,-1.3285,-1.3295,-1.3311,-1.3338,-1.3376,-1.3402,-1.3438,-1.3512,-1.3518,-1.3545,-1.3554,-1.3562,-1.3569,-1.3611,-1.3623,-1.3489,-1.3489,-1.3489,0,0,-1.3137,-1.3155,-1.3179,-1.3226,-1.3245,-1.3286,-1.3249,-1.3293,-1.3324,-1.3302,-1.336,-1.3374,-1.3403,-1.3471,-1.3501,-1.3484,-1.3608,-1.3569,-1.3575,-1.3578,-1.3618,-1.3631,-1.3642,-1.3493,-1.3492,-1.3492,0,0,-1.3217,-1.3234,-1.3283,-1.3303,-1.3332,-1.3338,-1.335,-1.3376,-1.3383,-1.3442,-1.3427,-1.3465,-1.3531,-1.3553,-1.3573,-1.3665,-1.3652,-1.3677,-1.3724,-1.3765,-1.3775,-1.3785,-1.3818,-1.383,-1.3684,-1.3685,-1.3685,0,-1.3253,-1.3313,-1.331,-1.3356,-1.3378,-1.3361,-1.3412,-1.3432,-1.3472,-1.3488,-1.3468,-1.3553,-1.3571,-1.3645,-1.3667,-1.3684,-1.3699,-1.3673,-1.3774,-1.3783,-1.3792,-1.3824,-1.3836,-1.3687,-1.3687,-1.3687,-1.3687,0,-1.3357,-1.3399,-1.3436,-1.3475,-1.3501,-1.3549,-1.3556,-1.3583,-1.3579,-1.3588,-1.3649,-1.3671,-1.3713,-1.373,-1.3727,-1.3804,-1.3793,-1.3773,-1.3737,-1.3808,-1.3838,-1.385,-1.3692,-1.3691,-1.369,-1.3689,0,0,-1.3458,-1.3497,-1.351,-1.3529,-1.3561,-1.3594,-1.3643,-1.3683,-1.3707,-1.3736,-1.3778,-1.3836,-1.3819,-1.3842,-1.3841,-1.3877,-1.3949,-1.3853,-1.3854,-1.3871,-1.4038,-1.4052,-1.4066,-1.3941,-1.3944,-1.3946,-1.4036,0,-1.354,-1.3624,-1.3625,-1.3703,-1.3743,-1.3729,-1.3772,-1.3797,-1.3807,-1.3844,-1.3855,-1.3897,-1.387,-1.3885,-1.3919,-1.3933,-1.3983,-1.3927,-1.3981,-1.3983,-1.3974,-1.4082,-1.4096,-1.418,-1.4048,-1.4049,-1.4051,0,-1.3646,-1.3679,-1.3761,-1.3789,-1.3806,-1.3844,-1.3882,-1.3917,-1.3947,-1.3952,-1.3979,-1.3973,-1.4025,-1.3988,-1.406,-1.4022,-1.4045,-1.4055,-1.4059,-1.4063,-1.4021,-1.4089,-1.4207,-1.422,-1.4069,-1.4068,-1.4066,0,-1.3713,-1.3777,-1.3835,-1.3851,-1.3885,-1.3913,-1.3929,-1.3956,-1.3981,-1.4015,-1.4032,-1.4072,-1.4094,-1.4126,-1.4132,-1.4104,-1.4205,-1.4168,-1.4212,-1.4212,-1.4233,-1.4231,-1.4356,-1.4248,-1.4248,-1.4248,-1.4248,0,-1.3804,-1.3855,-1.3865,-1.3901,-1.3958,-1.396,-1.4017,-1.4031,-1.4056,-1.4095,-1.4086,-1.4123,-1.4129,-1.4169,-1.4174,-1.4234,-1.4244,-1.4251,-1.4252,-1.4252,-1.4251,-1.4266,-1.426,-1.4251,-1.4251,-1.425,-1.4249,0,-1.3887,-1.3896,-1.3958,-1.3986,-1.3994,-1.4036,-1.406,-1.4095,-1.4105,-1.4155,-1.4167,-1.4184,-1.423,-1.424,-1.4294,-1.4298,-1.437,-1.4365,-1.4359,-1.4359,-1.4402,-1.4398,-1.454,-1.456,-1.444,-1.4441,-1.4442,0,-1.3944,-1.3983,-1.4015,-1.4041,-1.4058,-1.4099,-1.4125,-1.4129,-1.4157,-1.4195,-1.4226,-1.4271,-1.4307,-1.4382,-1.44,-1.4442,-1.4438,-1.4485,-1.4444,-1.4444,-1.4439,-1.4437,-1.4441,-1.4493,-1.4494,-1.4495,-1.4496,0,-1.4045,-1.4048,-1.4085,-1.4125,-1.4155,-1.4187,-1.4217,-1.4239,-1.4247,-1.4279,-1.4326,-1.4354,-1.4411,-1.4456,-1.45,-1.4518,-1.4509,-1.4509,-1.4521,-1.4521,-1.4517,-1.452,-1.4381,-1.4505,-1.4504,-1.4504,-1.4503,-1.4503,-1.4117,-1.4152,-1.418,-1.4223,-1.4246,-1.4274,-1.4309,-1.4324,-1.4363,-1.4409,-1.441,-1.4462,-1.4493,-1.455,-1.4571,-1.4613,-1.4598,-1.4616,-1.462,-1.4625,-1.4629,-1.4511,-1.462,-1.462,-1.462,-1.462,-1.462,0,-1.4218,-1.4236,-1.4275,-1.4317,-1.4351,-1.434,-1.4374,-1.4403,-1.4448,-1.4478,-1.4514,-1.4569,-1.4614,-1.4636,-1.4681,-1.4711,-1.4708,-1.4722,-1.472,-1.4725,-1.4639,-1.4624,-1.4724,-1.4724,-1.4724,-1.4724,-1.4724,-1.4724,-1.4274,-1.4332,-1.4339,-1.441,-1.4429,-1.4478,-1.4499,-1.4526,-1.455,-1.4612,-1.4649,-1.4663,-1.469,-1.4737,-1.4779,-1.4784,-1.4802,-1.4818,-1.4822,-1.4741,-1.473,-1.472,-1.4706,-1.4822,-1.4822,-1.4904,-1.4905,-1.4905]},{"header":{"parameterUnit":"m.s-1","parameterCategory":1,"la1":30.2991,"la2":30.254,"lo1":-89.0895,"lo2":-89.0444,"dx":0.0017,"dy":0.0017,"nx":28,"ny":28,"refTime":"2023-01-07T03:00:00:Z","depth":0,"parameterNumber":3,"parameterNumberName":"V-component_of_WINDS"},"data":[0,0,0,0,0,0,0,0,0,0,0,0,0,0,0,0,0,0,0,0,0,0,0,0,0,0,0,0,0,0,0,0,0,0,0,0,0,0,0,0,0,0,0,0,0,0,0,0,0,0,0,0,0,0,0,0,0,0,1.8698,1.8699,0,1.8777,1.8778,1.8779,1.8823,1.8823,1.8823,1.8823,1.8901,1.8903,1.8905,0,0,0,0,0,0,0,0,0,0,0,0,0,1.8582,1.8584,1.8698,1.8699,1.87,1.8777,1.8778,1.8779,1.8823,1.8823,1.8823,1.8823,1.8901,1.8903,1.8905,0,0,0,0,0,0,0,0,0,0,0,0,0,1.8644,1.8584,1.8698,1.8731,1.8735,1.8777,1.8778,1.8779,1.8823,1.8823,1.8823,1.8823,1.89,1.8903,1.8906,1.892,0,0,1.8915,1.8916,0,0,0,0,0,0,0,0,1.864,1.8648,1.8725,1.8729,1.8733,1.879,1.8766,1.8826,1.8823,1.8789,1.8823,1.8823,1.8864,1.887,1.8884,1.8923,1.8927,1.8915,1.8917,1.8918,1.8919,0,0,0,0,0,0,0,1.8636,1.8645,1.8729,1.8726,1.8731,1.8741,1.875,1.8778,1.8824,1.8792,1.8795,1.8804,1.8866,1.8881,1.8886,1.8928,1.8915,1.8917,1.8919,1.892,1.8983,1.8983,0,0,0,0,0,0,1.8626,1.8641,1.8727,1.8731,1.8686,1.8743,1.8753,1.8772,1.8824,1.8832,1.8804,1.8806,1.8876,1.8883,1.8889,1.891,1.8918,1.8921,1.8922,1.8983,1.8983,1.8983,0,0,0,0,0,0,1.8624,1.8634,1.8723,1.8687,1.8699,1.8745,1.8765,1.8773,1.8788,1.8833,1.8842,1.8811,1.8877,1.8885,1.8912,1.8913,1.8922,1.8925,1.8984,1.8983,1.8983,1.8951,0,0,0,0,0,0,1.862,1.8632,1.8639,1.8687,1.8701,1.8746,1.8765,1.8774,1.8794,1.8797,1.8842,1.885,1.8877,1.8908,1.8915,1.8917,1.8927,1.8984,1.8983,1.8983,1.8952,1.8949,1.8947,0,0,0,0,0,1.8616,1.8626,1.8639,1.8649,1.871,1.8746,1.8754,1.8786,1.8793,1.88,1.8829,1.8848,1.8912,1.891,1.8919,1.8922,1.8984,1.8984,1.8983,1.8953,1.895,1.8947,0,0,0,0,0,0,1.8575,1.8633,1.8648,1.8674,1.8705,1.8753,1.8762,1.8782,1.881,1.8812,1.885,1.886,1.8884,1.8905,1.8902,1.8939,1.895,1.8951,1.8924,1.8921,1.8919,1.8913,1.8929,0,0,0,0,0,1.8569,1.8594,1.8643,1.8661,1.8676,1.8716,1.8733,1.8755,1.8788,1.8801,1.8832,1.8863,1.889,1.8907,1.8934,1.8955,1.8966,1.8962,1.8959,1.8957,1.8958,1.8971,1.897,1.8983,1.8983,1.8983,0,0,1.8557,1.8592,1.8605,1.8653,1.868,1.8704,1.8727,1.8751,1.8769,1.8805,1.8833,1.8856,1.8893,1.8917,1.893,1.8936,1.8957,1.8957,1.8955,1.8957,1.8971,1.897,1.8969,1.8982,1.8982,1.8982,0,0,1.8548,1.8576,1.8595,1.8621,1.8662,1.8689,1.8693,1.8739,1.8756,1.8785,1.8812,1.8834,1.888,1.8905,1.8924,1.8924,1.8943,1.8932,1.892,1.8933,1.8932,1.8931,1.8931,1.8931,1.8933,1.8933,1.8933,0,1.8527,1.8566,1.8601,1.8625,1.8645,1.868,1.8698,1.8722,1.8769,1.8782,1.8789,1.8847,1.8874,1.8905,1.8906,1.892,1.8926,1.8927,1.8929,1.8929,1.8929,1.8929,1.8929,1.8931,1.8931,1.8931,1.8932,0,1.8539,1.8565,1.8575,1.8621,1.8642,1.8663,1.8701,1.8719,1.8739,1.8765,1.8794,1.8828,1.8863,1.8872,1.8892,1.8906,1.8909,1.8922,1.8934,1.8925,1.8927,1.8927,1.8929,1.8929,1.893,1.893,0,0,1.8505,1.8571,1.8574,1.8596,1.8643,1.8664,1.8686,1.8721,1.8736,1.8767,1.8786,1.8824,1.8837,1.8858,1.8881,1.8892,1.8891,1.8904,1.8906,1.8901,1.8908,1.8898,1.8898,1.8904,1.8904,1.8904,1.8905,0,1.8503,1.8546,1.8578,1.8608,1.8633,1.8666,1.8686,1.8716,1.8741,1.8765,1.8793,1.8819,1.8834,1.8847,1.8859,1.8888,1.8893,1.8889,1.8922,1.8922,1.8911,1.8899,1.8888,1.8888,1.8906,1.8906,1.8906,0,1.8505,1.8537,1.8569,1.8615,1.8626,1.8643,1.8679,1.8701,1.8737,1.8754,1.8778,1.8803,1.8827,1.8837,1.8871,1.8867,1.8883,1.8899,1.89,1.8904,1.8914,1.8903,1.8888,1.8888,1.8908,1.8907,1.8907,0,1.8478,1.8528,1.8554,1.8571,1.8625,1.8636,1.8659,1.8695,1.8714,1.8745,1.8758,1.879,1.8808,1.8832,1.8864,1.8868,1.8895,1.8907,1.8909,1.8908,1.8913,1.8912,1.8901,1.8923,1.8923,1.8923,1.8923,0,1.8471,1.849,1.8543,1.8559,1.8581,1.8618,1.8639,1.8664,1.8696,1.8717,1.8747,1.8766,1.8808,1.8831,1.8856,1.8881,1.8888,1.8903,1.8909,1.89,1.8898,1.891,1.8911,1.8923,1.8923,1.8923,1.8923,0,1.8444,1.848,1.8511,1.856,1.8573,1.8587,1.8628,1.8645,1.8672,1.8698,1.8706,1.8748,1.8778,1.8813,1.8853,1.887,1.8892,1.8902,1.8881,1.8884,1.8885,1.8884,1.8881,1.8882,1.8903,1.8903,1.8902,0,1.8438,1.8453,1.8504,1.8521,1.8543,1.857,1.859,1.8628,1.8647,1.8689,1.8701,1.8733,1.8761,1.8806,1.884,1.8871,1.8882,1.8878,1.8886,1.8877,1.8882,1.888,1.8882,1.8876,1.8876,1.8875,1.8875,0,1.8422,1.844,1.8468,1.8503,1.8527,1.8556,1.8586,1.8598,1.8641,1.8662,1.8693,1.8715,1.8757,1.8789,1.8824,1.8847,1.8868,1.8872,1.8875,1.8865,1.8853,1.886,1.8875,1.8872,1.8872,1.8873,1.8873,1.8873,1.8406,1.8421,1.846,1.849,1.8517,1.8545,1.8563,1.8593,1.862,1.8658,1.8679,1.871,1.8745,1.8795,1.8817,1.8841,1.8848,1.8852,1.8852,1.8853,1.885,1.8849,1.8848,1.8848,1.8848,1.8848,1.8848,0,1.8392,1.8419,1.8447,1.8489,1.8513,1.8532,1.8567,1.8585,1.8613,1.8644,1.8672,1.8708,1.8739,1.8775,1.8808,1.882,1.8831,1.8828,1.8827,1.8832,1.8842,1.8837,1.8819,1.8819,1.8819,1.8819,1.8819,1.8819,1.8388,1.8415,1.8437,1.8478,1.8504,1.8536,1.8554,1.858,1.8605,1.8645,1.8671,1.8695,1.8728,1.8764,1.8793,1.8803,1.8814,1.8808,1.882,1.8829,1.8831,1.8834,1.8829,1.881,1.881,1.8809,1.8808,1.8808]}]]